Wind_Speed
59 57 55 52 50 49 46 45 46 46 46 45 46 47 49 48 44 42 43 46 47 47 44 39 36 34 31 29 30 32 33 33 33 33 34 35 37 37 38 38 37 37
67 64 61 56 52 51 48 47 48 50 49 47 45 44 44 41 39 40 43 44 45 45 42 38 35 32 29 28 28 29 30 31 32 33 33 34 35 36 36 36 36 36
68 67 66 63 59 56 53 52 51 50 51 50 46 43 42 40 39 40 41 42 43 42 39 36 32 29 27 26 26 26 27 29 31 32 33 34 34 34 35 35 35 35
62 64 66 66 65 63 62 60 57 53 51 49 45 42 42 42 42 42 42 41 41 39 36 32 29 28 28 27 26 26 27 28 29 29 31 32 34 34 34 34 35 35
56 58 62 65 66 66 66 64 60 56 53 51 46 43 43 45 46 46 45 43 42 39 35 32 31 31 30 29 29 30 30 31 29 28 28 30 31 32 32 33 34 33
55 54 56 61 63 64 64 62 61 59 57 54 49 45 46 49 50 49 48 47 44 41 37 36 35 35 33 32 32 32 33 33 33 32 30 29 28 28 29 31 31 31
58 56 56 58 61 63 63 62 61 60 58 54 50 47 47 50 52 52 51 50 47 44 41 41 40 38 37 36 34 34 34 35 36 36 33 29 26 26 27 27 28 28
60 60 59 60 62 62 63 62 60 58 57 54 51 49 49 51 52 52 52 50 48 46 45 44 42 41 40 38 37 36 36 36 37 37 34 30 26 25 26 26 27 27
61 62 62 62 63 63 63 63 61 59 57 57 56 54 53 53 53 52 51 49 48 46 45 44 43 42 40 39 37 36 36 36 37 37 34 30 27 27 27 27 28 28
56 61 62 62 62 63 63 63 62 61 60 59 60 59 58 56 54 52 50 49 48 47 47 46 44 42 40 38 37 36 36 36 35 35 33 31 30 29 29 29 29 30
49 54 57 59 59 58 59 60 61 62 61 61 61 61 59 57 55 52 50 49 49 48 47 46 44 42 40 38 37 36 36 37 36 34 33 32 32 31 31 32 32 32
45 48 50 53 55 55 55 57 59 60 59 59 60 60 58 57 55 54 52 51 50 49 48 46 44 43 41 40 38 37 37 37 36 35 33 33 34 34 33 34 34 35
43 45 46 47 49 52 54 56 58 59 60 60 60 60 59 57 56 54 54 53 53 51 50 48 47 45 44 42 41 40 39 37 36 34 34 34 35 35 36 36 37 37
39 41 44 45 45 47 52 55 56 56 57 58 59 59 59 57 56 54 54 54 53 52 51 49 48 47 46 43 42 40 39 37 36 35 35 36 36 37 38 38 39 39
41 41 43 44 43 44 48 51 51 51 52 52 52 53 54 55 55 55 55 54 53 52 50 48 48 47 45 43 41 40 39 38 38 38 38 38 38 39 39 39 40 39
44 44 45 46 46 46 48 49 49 49 49 49 48 48 49 51 53 54 55 55 53 51 49 48 48 46 44 43 42 42 41 41 40 40 40 40 40 39 39 39 40 40
43 44 45 47 48 48 47 48 48 48 47 46 46 46 46 47 48 49 50 50 49 48 48 49 48 47 45 44 44 43 43 42 42 42 41 41 40 39 39 41 42 44
45 46 46 48 49 49 47 46 46 46 46 45 45 45 45 46 46 46 46 46 46 47 48 48 47 46 45 45 44 44 44 42 41 41 41 41 42 42 44 45 46 47
47 49 49 50 51 51 50 48 47 47 47 48 47 46 46 47 49 49 49 49 49 49 50 49 48 47 47 46 45 44 43 42 41 41 42 43 45 47 47 47 47 46
46 49 50 51 52 51 52 51 50 50 50 51 51 51 50 49 50 52 53 53 52 52 52 51 50 50 48 47 46 45 44 44 44 45 47 49 50 49 48 47 47 47
47 47 48 51 52 53 53 53 53 53 53 53 54 54 53 53 53 54 53 53 52 52 51 51 51 50 49 48 47 48 49 48 49 51 53 53 51 49 48 49 49 50
47 46 47 49 52 55 56 56 56 56 56 56 55 55 55 55 56 56 55 54 54 53 52 51 50 50 50 51 52 53 53 53 53 54 53 52 51 51 51 51 50 50
49 48 48 49 52 55 56 57 58 58 58 58 57 57 57 57 57 57 57 57 57 56 55 54 53 53 53 54 55 55 54 53 53 53 52 51 51 51 50 49 49 49
52 52 52 52 53 54 55 57 59 60 61 61 60 60 60 59 59 58 58 59 58 58 57 57 56 55 55 55 54 53 53 52 52 52 51 50 50 49 49 50 50 51
55 57 57 58 58 57 56 56 58 59 61 62 62 62 61 61 60 60 60 60 59 58 57 57 56 55 54 52 51 51 50 50 50 50 50 50 50 51 51 51 52 54
59 60 61 62 62 60 59 58 57 57 57 57 57 58 58 59 59 60 60 59 58 58 57 56 54 53 51 50 50 50 50 50 50 51 51 51 52 53 53 54 56 58
Wind_Direction
238 239 241 245 248 248 250 252 253 256 260 263 264 262 262 262 262 261 261 264 270 277 281 283 286 288 292 295 296 295 290 283 278 274 270 268 267 268 271 272 272 271
244 244 244 246 249 249 250 253 256 259 261 263 263 261 260 257 255 258 262 267 272 277 279 281 284 287 290 294 296 296 291 285 281 276 271 268 267 268 269 271 271 271
248 248 247 247 248 248 250 253 257 259 260 261 261 259 255 251 251 256 263 269 274 277 278 280 283 286 290 294 295 296 294 291 286 281 275 271 268 268 269 270 271 270
246 248 248 247 246 247 250 253 256 258 259 260 260 257 253 250 251 256 263 270 274 276 278 280 282 285 289 292 292 293 295 295 293 289 284 277 272 270 269 270 271 271
244 246 246 245 245 246 249 252 254 256 257 258 258 256 252 251 254 257 263 270 274 276 279 281 283 286 288 289 290 291 293 295 295 295 293 288 280 275 273 273 274 274
242 244 245 244 244 245 247 250 253 254 255 256 257 256 253 252 255 259 263 270 274 276 278 280 283 286 287 288 290 291 292 294 295 295 296 295 288 282 277 275 275 275
243 245 245 244 244 245 246 249 251 253 254 255 255 256 254 254 256 259 264 269 273 274 276 278 281 284 287 288 290 291 292 294 296 297 297 296 292 286 280 277 276 278
245 247 247 245 244 245 246 248 250 252 252 253 254 255 255 255 257 260 264 268 271 272 274 277 279 283 286 288 290 291 294 296 298 299 298 296 293 287 282 281 282 285
246 249 250 248 246 246 247 249 251 253 254 255 255 255 256 257 259 261 264 267 270 272 274 277 280 283 286 288 290 292 294 296 298 298 297 294 291 288 285 284 285 288
249 251 251 249 248 249 250 252 253 255 257 258 258 257 258 259 260 262 265 267 270 272 275 278 281 284 286 288 289 291 292 294 295 295 294 291 289 288 286 285 286 289
250 252 250 249 250 251 252 253 254 256 256 257 257 257 258 260 261 263 265 268 270 273 276 279 281 283 285 286 287 288 290 292 292 290 288 286 286 285 284 284 285 288
246 251 251 249 249 249 250 251 251 253 254 254 255 256 257 259 262 264 266 268 271 273 276 279 281 283 284 285 286 286 286 288 289 287 284 283 283 283 283 283 283 285
244 249 247 243 244 245 245 246 248 250 252 253 254 255 257 259 261 263 265 267 270 272 275 278 280 282 283 284 285 286 285 284 284 283 281 281 281 281 281 281 282 283
241 244 241 236 238 241 242 244 247 250 253 255 255 255 257 259 261 264 266 269 271 274 276 277 278 280 281 283 284 284 283 282 280 279 280 280 280 280 279 280 280 280
235 237 236 234 235 238 242 246 250 253 255 257 257 258 259 261 264 266 269 271 273 275 276 276 277 278 280 281 281 280 279 279 278 279 279 279 279 279 278 278 278 278
233 235 236 237 239 242 245 249 252 255 257 258 259 260 261 262 264 266 268 270 272 273 274 274 275 277 278 278 278 278 278 277 278 278 277 277 278 278 277 276 277 277
231 233 237 241 243 244 247 250 251 254 257 258 259 260 261 262 264 266 267 268 269 270 271 272 274 276 276 277 277 277 277 277 277 276 276 277 278 277 277 277 278 279
230 232 236 239 240 242 245 248 250 252 254 256 257 258 259 261 263 265 267 267 268 269 270 272 274 275 276 277 277 276 277 277 276 276 277 279 280 280 281 281 281 281
232 233 235 237 238 240 243 246 249 251 252 253 255 256 258 259 261 263 265 266 267 270 272 274 275 276 276 276 276 275 275 275 275 277 280 281 282 283 284 283 283 283
233 235 237 239 240 241 244 246 247 249 251 253 254 255 256 257 259 261 262 264 267 270 272 274 276 277 277 276 275 273 272 273 275 277 280 281 282 282 282 282 284 285
234 237 240 242 243 243 244 246 248 249 251 254 255 256 257 258 259 260 261 264 266 269 272 274 276 276 275 273 272 271 271 272 274 276 278 279 280 281 281 283 285 287
234 237 239 242 244 244 245 247 249 249 251 254 256 258 259 259 259 260 261 264 266 269 273 274 274 273 272 271 271 272 273 274 275 276 278 280 282 283 284 286 288 290
234 235 237 240 243 245 246 248 250 251 252 253 255 257 258 259 261 263 265 268 270 272 274 275 274 274 274 275 275 276 277 278 279 281 282 283 285 286 286 287 288 288
235 235 236 238 241 244 246 248 251 252 253 254 256 258 260 261 263 266 269 272 273 275 275 276 276 276 276 277 277 279 281 282 283 285 285 286 286 286 285 285 286 285
235 236 236 237 239 242 244 247 251 254 256 257 259 260 262 264 266 269 271 273 274 274 274 274 275 275 275 276 278 281 283 284 285 285 285 283 283 283 283 284 283 282
235 237 238 239 241 242 245 247 250 253 256 258 260 261 263 265 268 270 271 272 272 272 272 272 272 273 273 275 277 279 280 280 280 280 279 278 278 279 279 279 279 278
Height
10678 10679 10680 10681 10681 10681 10681 10683 10684 10684 10685 10687 10689 10690 10692 10693 10693 10694 10694 10694 10694 10693 10692 10692 10691 10691 10692 10692 10692 10691 10690 10689 10688 10688 10687 10687 10686 10686 10685 10684 10683 10682
10674 10675 10677 10678 10679 10679 10679 10679 10680 10680 10681 10683 10685 10686 10687 10688 10689 10689 10689 10690 10690 10689 10689 10688 10688 10688 10688 10689 10689 10688 10687 10687 10686 10685 10684 10683 10682 10681 10681 10680 10679 10678
10670 10672 10673 10674 10676 10676 10675 10676 10676 10677 10678 10679 10681 10682 10683 10683 10684 10685 10685 10686 10686 10685 10685 10684 10684 10684 10685 10685 10685 10685 10684 10684 10683 10682 10681 10679 10678 10678 10677 10676 10675 10674
10667 10668 10669 10670 10671 10672 10672 10673 10673 10673 10674 10675 10677 10678 10678 10679 10679 10680 10681 10681 10681 10681 10680 10681 10681 10681 10681 10681 10681 10681 10681 10680 10679 10679 10678 10677 10675 10674 10674 10672 10671 10670
10664 10664 10664 10665 10667 10667 10668 10669 10669 10669 10670 10671 10672 10674 10674 10674 10674 10675 10676 10676 10676 10676 10676 10677 10677 10677 10678 10678 10677 10677 10677 10676 10676 10675 10675 10674 10672 10671 10671 10669 10668 10667
10660 10661 10661 10661 10662 10662 10663 10664 10664 10664 10665 10666 10668 10669 10670 10669 10669 10671 10672 10672 10672 10672 10672 10673 10673 10674 10674 10674 10673 10673 10672 10672 10671 10671 10671 10670 10670 10669 10668 10667 10665 10665
10656 10656 10656 10657 10657 10657 10658 10658 10658 10659 10660 10661 10663 10664 10664 10664 10665 10666 10667 10667 10667 10667 10668 10669 10669 10670 10670 10669 10668 10668 10667 10667 10667 10666 10666 10666 10666 10666 10665 10664 10663 10663
10649 10649 10651 10651 10651 10652 10652 10652 10653 10654 10654 10656 10657 10658 10658 10659 10660 10661 10662 10662 10662 10663 10663 10664 10665 10665 10665 10664 10664 10663 10662 10662 10662 10661 10661 10662 10662 10663 10662 10662 10661 10660
10643 10642 10644 10645 10646 10646 10646 10647 10648 10648 10650 10651 10652 10652 10653 10654 10655 10656 10657 10657 10657 10658 10658 10659 10659 10660 10660 10659 10658 10658 10657 10657 10657 10657 10657 10657 10658 10658 10658 10658 10657 10656
10636 10635 10637 10639 10640 10640 10641 10641 10642 10643 10645 10646 10646 10646 10648 10649 10650 10651 10652 10651 10651 10652 10653 10654 10654 10654 10654 10654 10653 10653 10653 10653 10653 10652 10652 10653 10653 10654 10654 10653 10653 10652
10629 10628 10630 10632 10633 10634 10634 10635 10636 10637 10639 10640 10640 10641 10642 10643 10644 10645 10646 10646 10646 10647 10647 10648 10649 10649 10649 10649 10648 10648 10648 10648 10648 10648 10648 10648 10648 10649 10649 10648 10647 10646
10621 10621 10622 10624 10625 10626 10627 10628 10629 10630 10632 10634 10635 10635 10636 10637 10638 10639 10640 10640 10640 10641 10642 10643 10643 10643 10643 10643 10644 10644 10643 10643 10644 10644 10644 10644 10643 10643 10644 10643 10642 10641
10615 10616 10615 10615 10617 10619 10621 10622 10623 10625 10626 10627 10629 10630 10630 10631 10632 10633 10633 10634 10635 10636 10637 10637 10637 10637 10638 10638 10638 10639 10639 10639 10639 10640 10640 10639 10639 10638 10638 10637 10637 10636
10612 10611 10610 10611 10614 10616 10617 10617 10619 10620 10620 10620 10622 10623 10624 10625 10626 10627 10627 10627 10629 10630 10631 10631 10631 10631 10632 10633 10633 10634 10634 10634 10635 10635 10635 10635 10634 10633 10633 10632 10631 10631
10607 10607 10607 10609 10611 10612 10611 10612 10614 10614 10614 10614 10615 10617 10618 10618 10619 10620 10621 10622 10623 10624 10625 10625 10625 10626 10627 10628 10628 10629 10629 10629 10630 10630 10630 10629 10629 10628 10628 10627 10626 10625
10602 10604 10605 10606 10606 10606 10606 10607 10608 10608 10607 10608 10609 10610 10611 10612 10613 10614 10616 10617 10618 10618 10618 10618 10619 10621 10622 10622 10623 10623 10624 10624 10624 10624 10624 10624 10623 10623 10622 10621 10620 10620
10597 10600 10601 10601 10601 10601 10601 10602 10602 10602 10602 10602 10604 10604 10605 10607 10608 10609 10610 10612 10612 10612 10612 10612 10615 10616 10616 10617 10617 10618 10618 10619 10619 10618 10618 10618 10617 10617 10616 10615 10614 10613
10592 10594 10596 10595 10595 10596 10597 10597 10597 10596 10597 10597 10597 10598 10600 10602 10603 10604 10605 10607 10607 10606 10606 10608 10610 10611 10611 10612 10612 10612 10612 10613 10613 10612 10612 10611 10610 10610 10609 10608 10607 10606
10586 10588 10589 10589 10590 10591 10592 10592 10591 10591 10590 10591 10592 10593 10595 10597 10598 10599 10601 10601 10601 10601 10602 10603 10605 10605 10605 10606 10606 10606 10606 10607 10607 10606 10606 10605 10604 10603 10602 10601 10600 10600
10582 10583 10584 10584 10585 10585 10585 10586 10586 10585 10584 10584 10586 10588 10590 10592 10593 10594 10595 10596 10596 10596 10597 10598 10599 10600 10600 10601 10601 10601 10601 10602 10602 10601 10599 10598 10597 10596 10595 10594 10594 10593
10578 10578 10579 10578 10578 10578 10579 10579 10579 10579 10579 10579 10580 10583 10585 10587 10588 10588 10589 10590 10591 10591 10592 10593 10594 10595 10595 10596 10596 10596 10596 10598 10597 10595 10593 10592 10591 10590 10590 10589 10588 10587
10573 10573 10573 10572 10571 10571 10573 10573 10573 10574 10575 10575 10576 10578 10579 10580 10581 10582 10583 10584 10585 10586 10588 10588 10588 10589 10589 10589 10589 10589 10590 10591 10590 10588 10587 10586 10584 10584 10583 10582 10582 10580
10566 10567 10568 10566 10565 10566 10567 10567 10568 10569 10571 10571 10572 10573 10573 10575 10576 10576 10577 10578 10579 10581 10582 10581 10582 10582 10582 10582 10582 10582 10582 10582 10582 10580 10579 10578 10577 10576 10575 10575 10574 10573
10561 10562 10562 10561 10560 10561 10562 10562 10563 10564 10565 10566 10567 10567 10568 10570 10570 10571 10571 10571 10573 10574 10574 10574 10574 10575 10575 10574 10574 10573 10573 10572 10572 10570 10569 10568 10568 10567 10567 10567 10566 10565
10554 10555 10555 10555 10555 10556 10558 10558 10558 10559 10560 10561 10562 10563 10564 10564 10565 10565 10566 10566 10566 10567 10567 10567 10567 10567 10566 10566 10566 10565 10564 10563 10562 10561 10561 10560 10560 10560 10561 10560 10559 10557
10547 10548 10549 10550 10551 10553 10554 10555 10555 10556 10556 10557 10557 10557 10558 10559 10559 10560 10560 10560 10560 10560 10560 10560 10560 10560 10560 10559 10559 10558 10558 10557 10556 10556 10556 10555 10555 10555 10556 10555 10552 10550